Location: Unspecified
(0.0000°N, 0.0000°E)
Time: 11:14:12
(UTC+00:00)

Vanguard 2 Rocket - Pass Details

Date: 24 November 2019
Orbit: 554 x 3326 km, 32.9° (Epoch: 13 December)

Event Time Altitude Azimuth Distance (km) Brightness Sun altitude
Rises 11:06:43 0° 257° (WSW) 6,240 11.1 67.3°
Reaches altitude 10° 11:11:59 10° 243° (WSW) 5,615 11.1 67.8°
Maximum altitude 11:25:16 24° 196° (SSW) 5,099 11.4 68.8°
Drops below altitude 10° 11:40:00 10° 149° (SSE) 6,186 11.6 69.4°
Sets 11:46:25 0° 136° (SE) 6,976 11.6 69.5°
